GFSMA_925_thetae_102.txt.gz
Theta_e
349 349 349 347 346 343 335 345 345 341 337 338 344 345 345 345 348 346 344 339 339 339 338 336 333 331 330 329 332 337 337 336 336 337 336 336 340 343 339 342 339 339 342
347 349 348 348 347 343 333 341 342 339 336 337 344 344 345 345 345 347 343 345 342 342 342 341 338 337 336 334 331 330 333 338 347 344 338 340 334 337 342 340 343 341 339
347 347 348 347 348 346 342 340 346 345 344 341 343 343 345 345 343 345 347 346 344 343 344 343 342 341 341 341 339 336 332 331 335 345 337 335 333 335 333 337 343 339 336
348 347 348 348 349 349 347 342 343 345 346 348 346 344 344 345 345 342 343 346 347 345 345 345 346 345 344 342 342 342 340 339 337 337 339 339 339 337 336 336 336 337 339
347 347 345 346 348 348 348 349 349 348 347 348 347 346 346 346 343 344 343 341 344 346 347 346 346 346 346 346 343 343 343 342 342 342 342 342 342 342 342 341 340 339 337
347 347 347 345 346 347 347 348 350 349 348 348 346 348 348 347 346 345 344 344 344 344 345 346 348 348 347 347 347 346 344 344 343 343 343 343 343 343 343 343 343 343 342
347 348 349 347 348 349 349 349 349 348 349 348 347 346 346 345 348 348 347 347 345 346 346 344 346 347 348 348 348 347 347 346 345 344 343 343 344 344 344 344 344 343 343
348 346 348 348 349 350 349 349 349 348 348 349 348 345 342 344 345 347 349 349 348 347 348 348 345 347 346 348 348 348 349 348 348 347 347 346 346 347 347 346 345 346 346
348 347 346 346 347 348 349 350 349 348 348 348 349 345 343 343 342 344 344 346 347 348 348 348 348 348 347 348 348 348 349 350 350 348 348 348 348 347 342 341 343 343 344
349 349 347 346 347 348 349 348 348 348 348 349 349 349 345 345 345 343 346 348 348 347 348 348 349 348 347 348 350 348 348 350 349 350 348 347 347 344 340 338 339 340 343
350 349 347 347 347 348 349 348 347 348 349 349 347 345 347 347 347 344 345 345 345 345 347 348 348 347 346 344 350 350 348 351 350 350 346 347 346 344 341 338 339 340 340
350 350 349 348 346 347 348 349 350 350 349 348 346 344 344 345 345 345 345 343 344 344 344 346 346 345 342 346 348 350 349 348 347 348 346 346 345 341 339 339 339 340 341
350 350 349 349 348 348 348 348 348 349 347 347 345 345 346 346 346 345 344 342 341 344 344 345 346 345 344 347 347 348 348 347 346 347 346 344 343 340 339 339 340 341 341
350 349 350 351 350 350 349 348 348 347 347 347 346 346 345 346 346 347 346 344 341 340 343 342 343 345 347 347 347 347 347 347 347 346 345 344 342 339 339 340 341 341 342
350 349 351 350 351 351 349 348 347 347 348 347 347 345 346 347 346 346 347 347 344 346 340 342 343 343 343 343 345 343 344 347 346 346 345 343 340 338 339 340 341 341 341
350 351 350 350 350 349 351 349 349 349 348 346 346 346 346 346 347 347 346 347 346 344 343 341 341 341 341 343 343 344 346 346 345 345 344 341 338 339 339 340 341 341 341
352 352 351 350 350 350 351 350 349 348 347 347 346 347 347 346 345 345 345 345 343 342 341 341 341 341 343 344 343 344 345 345 344 343 342 339 338 338 338 339 340 341 341
351 352 351 349 350 350 350 350 348 349 349 346 346 348 346 347 346 344 345 344 343 341 341 340 341 341 344 344 343 342 342 342 341 341 339 338 337 337 337 338 338 340 340
348 348 349 350 350 348 350 348 349 349 348 346 347 346 344 346 347 345 345 345 344 342 340 340 341 343 344 344 343 342 341 341 340 340 338 336 336 335 335 336 338 339 340
343 332 345 348 349 348 347 350 349 348 347 346 346 345 345 345 345 345 345 344 344 344 344 343 343 343 343 343 342 340 339 339 338 339 337 337 336 335 335 335 336 339 340
338 333 341 345 348 348 347 349 348 348 345 345 347 346 345 345 345 344 343 344 344 343 344 343 342 342 342 340 341 340 338 337 337 337 338 337 336 335 334 334 335 336 339
336 333 336 343 347 348 347 347 349 349 346 346 346 346 346 346 345 344 343 344 343 343 342 342 342 342 342 342 340 339 335 334 333 334 335 334 335 335 334 334 335 335 337
338 340 338 339 347 347 347 346 347 348 349 348 347 346 345 344 343 343 344 344 345 343 342 341 342 342 342 342 342 339 337 335 334 333 333 333 334 334 334 333 334 336 337
338 342 343 343 345 346 345 346 346 346 349 349 348 347 346 345 344 344 344 343 344 343 343 343 341 339 341 341 341 341 340 338 335 334 333 333 332 333 334 333 333 334 337
338 341 343 343 343 342 343 344 344 344 346 347 347 348 347 345 346 345 344 342 344 343 342 342 339 338 341 340 339 340 338 334 333 333 332 333 333 334 334 333 333 334 335
340 339 343 343 344 342 342 342 340 339 342 344 345 346 345 344 344 343 342 343 343 343 343 342 340 338 338 337 336 339 340 336 333 332 333 332 332 332 332 333 334 333 334

GFSMA_925_thetae_105.txt.gz
Theta_e
348 348 344 346 350 344 347 344 342 337 337 339 340 346 345 345 346 346 345 346 342 333 333 337 343 346 336 330 333 343 343 338 335 340 335 337 338 337 334 342 342 336 339
350 349 347 347 346 347 340 341 344 341 338 337 339 344 344 346 345 347 346 344 339 338 339 339 338 338 338 332 331 333 339 343 344 337 335 336 337 338 342 338 342 342 341
349 348 349 348 347 345 343 335 344 343 342 340 338 343 344 345 344 344 346 341 344 343 342 343 341 341 339 338 337 334 331 335 343 344 344 342 343 339 334 339 342 342 340
347 347 348 348 347 346 344 337 339 345 345 345 343 343 343 344 345 343 345 346 346 344 344 344 344 343 343 343 341 341 339 337 334 334 338 343 339 336 335 335 334 335 339
348 348 347 347 347 348 349 346 340 343 345 345 347 346 346 346 345 344 343 343 345 347 346 345 345 345 345 345 345 343 342 342 341 340 340 339 340 340 341 341 339 338 337
349 348 347 346 347 348 348 349 347 345 346 347 346 348 346 346 345 345 344 344 342 342 344 345 346 346 346 346 346 346 345 345 344 343 343 342 342 342 342 342 342 342 342
349 348 347 346 345 346 347 347 348 349 348 347 347 347 347 347 347 347 347 347 346 344 344 344 345 346 346 348 347 347 347 346 346 345 344 343 343 343 343 343 343 343 343
350 349 347 347 346 344 347 347 347 347 349 348 347 344 342 344 345 344 344 346 347 348 346 346 346 346 345 347 347 348 348 347 347 347 347 346 345 345 345 346 346 346 346
350 349 347 346 348 347 347 348 348 348 348 348 348 346 341 342 340 343 344 344 346 348 348 347 348 347 347 346 347 347 348 348 348 348 348 348 347 347 347 346 344 340 342
350 350 348 346 347 348 348 348 348 348 348 347 346 347 345 343 341 341 343 346 346 345 345 345 345 347 347 347 347 347 347 348 348 348 348 347 347 347 345 345 341 337 338
350 349 349 347 346 346 346 347 348 349 349 348 347 347 347 346 344 342 343 344 344 344 344 344 346 348 348 348 347 345 345 348 349 349 350 349 347 346 347 344 342 339 339
349 349 349 348 348 347 346 347 348 348 348 348 347 347 346 344 345 343 342 343 344 344 343 343 343 345 346 346 345 345 345 348 349 349 348 346 346 346 345 342 339 339 339
349 350 349 349 349 348 347 347 347 346 347 347 348 347 347 345 343 343 343 340 341 343 344 343 343 343 345 345 345 347 346 347 349 348 345 346 346 345 343 340 339 339 340
348 348 349 349 349 348 348 347 347 347 346 346 346 346 345 345 343 345 345 344 343 340 342 344 343 343 343 342 342 345 346 348 347 346 345 346 345 344 342 339 339 340 341
347 347 348 349 349 348 349 349 348 348 348 347 345 346 345 345 345 345 346 346 344 346 340 342 342 342 342 343 345 347 347 344 345 345 346 345 344 342 339 338 339 340 341
350 350 350 348 349 349 350 350 349 349 348 347 347 347 346 345 345 346 346 346 347 344 345 342 342 342 342 343 343 343 344 343 342 345 345 344 343 341 338 338 339 340 341
351 351 350 350 349 350 350 350 350 349 347 348 348 347 346 345 345 346 347 346 346 345 343 342 341 341 341 341 343 343 342 344 345 345 345 343 341 339 338 338 338 339 340
351 350 351 351 350 349 349 349 349 350 349 348 348 346 346 346 346 346 345 345 344 343 342 339 341 341 341 343 343 343 343 343 344 344 343 341 339 337 337 337 337 338 340
349 350 351 351 351 350 348 348 349 349 348 347 346 347 345 346 346 346 346 344 344 343 342 340 340 340 341 343 343 343 342 341 340 341 340 338 337 336 335 336 336 338 339
345 346 346 347 348 348 349 347 348 349 347 347 348 345 345 345 344 344 345 345 344 344 342 341 340 340 342 342 343 342 341 340 341 339 339 337 336 336 335 334 335 337 339
339 339 342 345 344 345 347 347 346 347 347 349 348 346 346 345 344 344 344 344 344 344 343 343 340 341 341 340 341 341 339 338 338 337 337 336 336 336 335 335 334 335 339
341 339 335 334 335 338 346 347 346 346 348 348 347 346 345 346 345 345 344 344 342 343 343 341 341 339 340 340 340 338 338 336 334 336 335 335 336 335 335 335 334 334 336
339 335 335 335 335 336 338 345 345 344 347 347 346 345 345 345 345 345 345 344 343 343 344 343 341 341 340 341 342 339 337 335 335 335 335 333 334 333 334 335 333 334 335
338 337 338 337 339 333 335 343 344 344 344 346 346 346 346 346 345 345 343 343 343 343 344 344 343 342 341 340 341 341 341 337 335 335 334 333 333 332 333 334 333 333 335
337 337 338 340 341 338 341 343 341 342 342 344 345 345 345 344 345 345 345 344 344 343 342 342 342 342 342 340 340 340 339 334 334 334 334 333 333 332 332 333 333 333 332
338 337 340 341 342 342 342 341 342 340 340 340 340 342 344 344 344 345 345 344 344 343 342 342 342 341 341 339 340 340 339 335 334 330 334 332 332 332 332 333 334 333 332

GFSMA_925_thetae_108.txt.gz
Theta_e
349 350 346 350 348 347 347 349 348 343 342 340 340 339 345 344 344 345 345 345 345 341 336 340 346 342 345 343 337 336 341 337 331 336 343 337 334 342 339 338 339 338 334
346 345 344 347 351 346 350 346 347 341 338 339 339 343 345 344 345 346 345 345 346 342 336 335 337 337 341 342 337 334 340 345 337 334 337 338 333 335 337 338 336 343 343
345 344 345 344 344 345 343 342 345 346 343 339 338 340 343 344 345 344 345 345 343 341 341 340 341 341 340 339 336 334 332 334 336 335 339 338 337 335 336 335 341 340 340
345 349 348 346 346 345 344 343 338 346 345 342 340 338 341 343 344 345 343 345 340 344 343 343 344 343 342 342 342 341 340 337 335 333 334 341 345 344 340 336 333 333 334
343 348 348 348 348 348 346 344 338 337 344 344 343 342 344 344 344 344 344 343 345 345 345 345 344 344 344 344 344 344 344 342 342 340 339 337 336 340 340 339 339 339 338
343 345 347 347 347 348 347 347 345 339 342 343 344 345 346 346 346 345 344 344 343 343 344 346 346 344 345 345 345 345 345 345 344 344 343 342 342 341 341 341 342 342 342
348 348 348 347 346 347 347 348 348 347 345 344 347 346 346 346 346 346 345 345 344 344 343 341 342 345 345 345 346 346 346 346 346 346 345 345 344 343 343 343 343 343 343
347 347 348 348 347 346 347 347 347 348 347 347 346 344 347 346 345 345 345 345 345 345 346 346 345 344 345 345 345 344 346 347 347 346 346 346 346 346 345 344 344 345 345
347 347 348 349 347 346 346 344 346 346 346 346 346 346 344 349 340 343 343 344 343 343 344 346 347 347 346 346 346 346 345 346 347 347 347 347 347 348 347 346 346 346 345
349 349 349 349 347 346 347 344 345 346 346 346 346 347 346 342 346 347 342 343 343 343 343 344 346 347 347 346 346 347 346 346 347 348 348 347 347 347 347 346 345 345 343
350 350 349 349 347 345 346 347 346 346 346 347 346 346 346 345 342 343 348 344 343 343 344 344 343 343 344 346 347 347 346 347 345 346 347 348 348 347 348 345 346 345 343
349 349 350 350 349 347 345 346 347 347 347 347 347 346 346 345 345 344 345 344 344 343 341 341 342 342 341 343 346 346 346 346 344 347 349 349 346 346 346 346 345 342 339
349 350 350 350 349 348 347 346 345 345 346 347 348 348 347 346 345 343 343 342 343 342 343 343 343 342 340 341 343 345 345 344 346 347 349 347 346 345 346 345 343 341 339
349 350 348 348 348 349 348 347 347 346 346 346 346 347 347 346 346 346 344 342 343 343 343 343 343 343 342 342 344 343 342 345 346 346 347 346 345 345 345 344 342 339 339
349 349 349 348 348 348 348 348 348 347 347 347 346 345 345 344 344 344 344 343 344 348 346 342 342 342 342 342 342 342 343 344 346 345 345 344 345 345 344 342 339 339 339
347 348 348 348 347 348 348 348 348 348 347 347 347 346 345 345 345 345 344 344 345 345 346 342 342 342 341 342 343 343 343 344 345 344 343 343 345 344 342 339 338 338 339
348 347 347 347 347 348 348 348 348 349 349 348 348 348 347 346 346 345 345 345 345 344 344 343 342 342 341 341 341 341 342 342 343 343 345 345 344 342 340 338 337 337 338
348 349 349 349 350 350 349 348 349 349 349 348 347 347 347 347 346 345 345 345 345 344 343 343 340 340 341 341 341 342 342 343 343 345 344 344 342 339 338 337 337 337 338
346 348 349 350 350 350 349 348 349 348 347 348 348 347 347 345 345 345 345 345 344 343 343 341 339 339 339 340 342 343 343 342 341 341 341 340 339 337 336 335 335 336 338
344 347 348 349 350 349 348 348 348 348 347 348 348 347 345 345 344 344 345 345 345 343 342 341 340 339 339 340 341 342 341 340 339 339 338 338 337 337 336 335 334 335 336
342 339 346 345 344 346 347 347 346 347 347 348 348 346 346 345 344 344 344 343 344 343 346 341 340 339 339 340 339 340 340 340 340 338 338 337 336 336 335 336 335 334 334
341 341 340 340 342 344 345 344 345 346 346 348 346 346 347 346 345 345 345 343 343 344 342 342 340 339 340 340 340 339 339 338 336 337 337 336 336 335 336 335 335 334 334
339 339 338 335 335 336 338 341 339 341 343 345 345 345 345 346 344 344 344 345 344 344 343 342 341 341 341 341 340 338 339 337 337 337 335 336 335 334 334 333 334 334 334
337 337 339 338 336 335 335 336 337 340 342 344 343 344 344 345 345 344 344 344 344 344 343 342 343 343 343 341 341 340 340 338 337 336 336 334 335 334 333 332 333 334 333
337 337 338 339 338 338 338 337 334 338 341 340 341 342 344 344 343 343 344 344 344 343 342 342 342 342 342 342 341 339 338 335 335 334 335 335 334 333 333 332 332 334 333
336 337 337 337 338 340 341 340 340 341 341 340 339 339 338 338 340 341 342 344 343 344 343 342 342 341 341 341 341 340 339 337 336 335 335 334 333 333 334 332 332 333 333

GFSMA_925_thetae_111.txt.gz
Theta_e
351 351 350 351 345 350 351 350 350 349 346 344 344 346 344 345 346 346 347 346 344 345 342 336 340 340 337 343 338 335 338 342 335 331 335 345 338 334 343 339 342 338 336
350 351 351 349 351 345 348 350 349 347 346 344 345 346 346 348 348 348 349 348 345 345 342 337 336 338 338 340 338 334 333 337 341 337 332 340 342 335 335 338 335 333 340
350 350 349 348 349 349 349 349 349 349 346 345 345 345 346 347 348 348 349 349 349 345 342 338 339 339 340 339 341 339 336 332 333 341 336 336 335 333 334 334 335 338 342
350 350 348 347 347 350 349 346 347 347 346 344 344 344 345 346 347 346 348 348 349 349 345 340 341 342 342 342 342 342 342 341 338 335 334 334 336 341 344 343 339 336 333
349 349 348 349 349 348 348 347 345 344 346 346 345 344 345 346 347 347 347 348 347 347 347 347 343 343 344 344 343 343 344 344 343 342 341 339 337 336 339 341 341 340 339
349 347 349 351 350 349 351 350 347 344 341 345 344 343 345 347 348 348 348 347 347 348 347 349 349 348 345 344 344 344 345 345 345 344 344 344 343 342 341 340 341 340 341
348 348 348 350 349 350 351 351 349 348 342 345 346 345 347 349 348 347 348 347 347 347 347 348 348 347 347 346 344 345 345 345 346 345 345 345 345 345 344 343 343 343 343
348 348 348 349 350 350 351 351 351 350 348 349 347 348 348 346 348 347 347 348 348 347 347 348 348 346 347 348 349 345 345 345 344 346 346 346 346 346 346 346 345 345 345
349 350 351 351 351 350 349 350 350 351 350 349 349 347 352 350 347 346 348 348 348 348 348 348 350 350 350 350 349 347 345 346 345 345 346 346 347 346 347 347 347 347 346
349 350 350 351 351 350 349 350 349 349 349 348 347 347 347 348 352 348 346 347 348 349 349 348 348 349 351 351 351 349 347 346 346 346 346 347 347 347 347 346 346 346 345
350 351 351 351 350 351 350 350 350 350 349 349 346 348 348 347 348 348 350 346 346 347 348 349 347 348 349 347 348 348 346 346 346 347 347 345 347 348 348 347 346 346 345
350 351 352 352 351 351 351 350 350 349 346 348 346 345 347 347 348 349 350 348 346 346 345 345 344 345 345 346 345 341 343 346 346 346 346 344 347 348 348 346 347 346 346
350 350 352 353 352 350 348 347 345 347 351 348 348 348 348 348 348 347 348 347 348 345 345 344 345 346 346 346 346 344 342 342 344 344 343 345 348 348 346 345 345 346 343
350 350 351 352 352 352 351 349 349 346 345 345 345 347 347 348 348 346 347 347 348 345 346 346 345 344 345 346 344 343 344 344 342 344 346 346 348 347 344 344 345 344 341
351 351 351 351 352 353 352 350 347 347 346 346 346 346 348 346 347 348 347 347 347 349 348 345 345 343 342 342 343 344 348 345 343 345 347 347 346 345 344 344 344 341 339
351 351 352 352 352 352 352 350 346 347 346 348 347 346 346 346 345 347 347 347 347 346 349 344 346 346 345 345 344 343 346 343 343 345 345 344 344 344 344 343 341 339 338
350 349 351 351 352 352 352 351 349 346 347 350 349 349 349 348 345 346 348 348 348 348 347 345 346 344 346 346 345 342 341 344 346 342 343 343 344 344 343 341 340 338 337
351 350 350 351 351 351 351 351 351 350 350 351 351 351 350 350 350 348 348 347 347 345 344 345 345 344 345 345 341 341 343 342 342 343 343 344 344 343 342 340 338 337 337
348 349 349 351 351 352 352 351 350 349 348 349 351 351 350 350 350 349 349 347 346 345 344 346 345 343 344 344 343 341 342 342 342 341 342 342 342 340 338 337 336 336 336
344 347 347 349 350 351 352 350 348 348 346 347 348 350 350 350 350 349 348 348 348 347 345 345 343 341 343 344 343 343 342 342 342 340 339 340 339 337 337 336 336 335 335
339 341 343 345 349 349 350 349 350 348 348 348 346 348 350 349 348 348 346 347 347 347 345 342 342 342 343 342 342 343 343 343 340 341 342 341 339 338 337 335 336 336 335
337 338 339 343 345 346 347 347 349 351 350 347 347 347 349 346 345 345 343 345 347 347 345 344 343 342 343 344 344 343 342 341 342 342 341 341 340 340 339 339 338 336 335
338 338 340 340 342 342 342 342 344 345 346 345 345 345 345 347 347 347 345 344 344 344 344 346 346 345 345 346 344 345 343 342 343 341 341 339 340 339 339 339 336 334 335
336 335 338 338 337 338 336 338 338 342 341 341 341 343 342 345 344 344 347 346 345 345 344 344 345 346 346 342 343 344 344 343 342 341 338 340 340 338 339 338 335 333 334
337 336 337 339 338 336 335 335 336 337 337 339 338 339 341 342 342 342 342 345 345 346 344 344 344 344 343 342 343 344 344 342 340 338 338 337 339 338 338 337 336 333 333
338 339 340 339 339 339 338 338 336 336 336 339 339 339 339 338 337 335 336 339 343 342 345 345 343 342 342 342 341 342 343 343 341 341 339 337 338 338 338 337 336 335 333

GFSMA_925_thetae_114.txt.gz
Theta_e
351 352 351 350 342 350 347 346 345 349 345 346 345 347 347 345 347 348 348 349 347 344 345 341 337 338 340 339 342 335 332 339 342 335 332 339 343 339 333 344 339 343 342
351 351 348 350 347 343 349 349 350 349 345 342 344 345 348 346 347 349 349 351 348 345 345 342 338 337 336 334 335 337 333 331 339 342 338 334 336 344 339 335 342 337 335
351 350 351 347 349 344 344 350 351 347 343 342 342 343 347 347 347 349 350 351 350 344 345 343 339 339 340 340 339 339 338 336 334 336 344 339 336 337 337 334 333 334 334
350 350 348 346 345 349 343 347 347 346 342 342 342 344 345 346 347 349 349 349 349 350 350 343 341 341 342 342 342 342 342 342 341 340 337 335 335 335 338 341 342 339 338
350 349 346 346 347 345 346 342 343 344 342 343 342 344 344 344 345 346 347 349 350 349 348 349 347 344 342 343 343 343 343 344 344 344 343 342 341 339 338 337 341 343 340
349 349 347 348 348 344 344 343 343 342 342 343 344 343 343 343 343 346 348 348 347 348 349 348 349 350 348 346 344 344 344 344 344 344 344 344 344 344 343 342 341 340 341
348 350 347 349 349 347 346 347 346 345 343 341 343 343 343 344 345 346 347 347 346 347 348 348 349 348 347 347 346 345 345 344 344 345 345 345 345 345 345 345 344 344 343
349 348 347 347 351 351 350 350 350 345 343 339 342 341 343 342 341 343 344 344 344 345 346 346 348 350 350 348 348 349 348 346 345 345 345 345 346 346 346 346 346 345 345
350 349 348 348 349 352 349 352 351 350 345 343 344 339 344 344 342 344 345 347 346 346 348 348 349 350 352 352 351 351 350 348 346 345 345 345 345 345 346 346 347 347 347
349 349 350 351 351 350 350 350 352 351 349 349 349 350 349 347 350 350 346 348 350 351 350 349 348 349 351 352 351 351 350 351 349 347 346 346 346 346 347 347 347 347 347
349 348 350 352 353 352 351 350 350 351 350 350 349 349 350 348 349 350 350 347 347 346 347 349 349 348 348 350 350 350 350 347 342 345 345 346 347 347 346 347 347 347 346
349 349 349 351 353 352 352 352 353 353 352 350 350 351 347 348 349 350 355 350 347 345 345 347 346 345 345 345 347 346 346 345 341 344 346 347 347 345 345 347 347 347 348
351 352 351 352 353 353 354 354 354 353 352 350 349 350 348 348 348 349 350 348 346 344 345 346 346 346 347 348 347 346 347 346 341 343 344 344 344 344 346 348 348 347 347
351 352 353 353 353 354 353 352 354 350 349 351 351 350 348 349 348 349 349 346 348 346 343 344 347 347 347 346 346 346 347 346 344 344 344 342 346 347 348 348 347 346 345
352 352 353 353 353 353 353 353 354 352 350 351 350 351 350 349 349 349 348 349 348 352 345 344 347 347 347 347 347 346 347 349 350 346 342 344 345 348 347 345 344 344 344
353 354 354 354 354 354 353 353 353 352 351 350 351 349 350 349 349 349 348 348 348 349 350 346 346 346 347 348 347 348 347 348 346 344 344 345 345 345 345 344 344 344 342
352 354 354 356 355 355 354 354 354 352 351 351 350 352 350 351 350 349 348 349 349 350 351 347 346 344 348 347 347 348 348 348 348 345 343 343 344 344 343 344 344 342 340
352 352 353 353 355 354 355 355 354 352 351 351 351 352 352 352 354 351 349 349 348 349 349 348 344 346 346 347 348 348 348 347 347 346 342 343 343 344 344 343 342 340 338
352 353 354 353 354 354 354 354 354 353 352 352 351 352 354 353 353 352 352 350 350 349 349 347 346 346 345 346 348 347 346 342 342 341 341 342 344 343 343 341 339 338 336
349 351 352 350 351 353 353 353 353 353 353 353 352 352 351 352 352 352 352 351 348 349 348 349 347 346 346 345 346 345 347 345 345 342 341 341 341 340 339 337 337 336 335
342 342 344 347 350 351 351 352 352 352 353 353 352 350 350 351 350 351 351 349 347 348 347 347 347 347 345 346 346 345 344 344 346 346 344 344 342 341 340 337 337 336 336
341 341 342 342 343 345 347 349 350 352 351 351 351 351 351 349 346 349 349 346 347 347 348 347 346 346 346 347 346 345 345 345 344 344 344 344 342 343 341 341 341 338 337
340 342 341 342 344 346 346 347 347 349 350 350 352 352 350 349 347 349 345 344 344 347 347 348 348 347 346 346 345 346 345 344 343 344 344 343 342 342 341 341 340 339 337
341 340 339 343 343 344 343 342 343 345 350 351 349 350 349 348 346 345 345 344 344 346 346 346 347 348 347 347 347 346 346 345 345 343 343 343 341 341 342 342 340 339 335
339 337 337 338 340 341 339 338 337 337 342 345 344 344 342 341 340 341 341 341 343 345 346 345 344 344 346 345 344 346 345 346 345 344 343 342 340 340 341 340 341 339 335
342 342 341 339 339 343 341 338 335 337 341 342 343 337 338 336 339 340 339 339 341 341 345 346 347 343 343 344 343 343 344 345 344 344 343 341 340 340 341 340 340 339 336

GFSMA_925_thetae_117.txt.gz
Theta_e
349 350 350 349 345 352 346 346 345 345 345 345 344 345 345 344 345 344 351 349 348 346 344 345 339 340 341 338 337 338 334 335 344 342 336 335 338 341 338 334 344 339 343
350 351 351 350 347 350 343 344 347 348 347 343 344 345 345 345 344 347 349 348 350 345 344 344 340 340 342 338 335 336 336 333 332 339 340 338 335 335 344 339 337 342 338
349 350 350 350 350 346 348 344 349 351 348 343 342 343 346 346 345 348 349 350 352 345 343 344 341 339 340 341 340 339 339 338 336 334 334 339 341 337 336 339 336 333 335
351 349 348 348 349 348 344 349 350 347 346 343 341 342 345 346 347 348 349 349 349 351 349 344 343 342 342 342 342 342 342 342 343 342 341 339 337 336 336 336 338 339 337
348 348 347 348 346 349 346 343 345 346 345 342 342 342 344 345 345 345 347 348 348 347 350 353 347 347 345 344 343 343 343 343 344 344 344 344 343 342 341 339 338 338 342
351 347 346 347 346 344 344 343 342 343 344 343 342 342 343 344 343 343 345 345 346 349 349 349 350 351 350 348 346 345 344 344 343 344 344 344 344 344 344 344 343 342 341
350 350 346 348 349 346 343 345 345 344 343 342 343 343 344 344 344 343 343 344 346 348 348 348 349 347 347 348 347 346 346 345 344 344 343 344 345 345 345 345 345 345 344
350 350 350 348 351 348 348 350 346 344 344 343 342 342 344 343 342 343 343 343 345 346 345 346 348 348 348 348 350 349 349 349 348 345 344 344 344 344 345 346 346 346 346
351 350 351 349 350 351 349 350 347 346 346 343 341 341 342 342 342 343 344 344 344 345 346 345 348 348 352 352 351 352 351 350 350 349 346 345 345 344 344 345 345 346 346
352 352 351 351 349 352 352 351 350 348 350 349 346 344 343 348 349 348 345 349 349 351 351 351 350 349 351 353 352 352 351 351 351 351 350 349 347 345 345 345 346 346 346
352 351 352 351 352 351 351 353 352 353 353 351 350 350 351 349 351 348 350 349 346 349 350 352 350 349 349 351 351 351 351 351 350 348 345 344 346 346 346 346 346 347 347
352 351 351 352 353 353 353 354 354 353 353 353 353 351 352 353 351 351 352 350 349 347 347 346 348 348 347 347 347 347 346 346 345 346 346 343 345 347 347 347 347 345 347
350 352 351 352 353 354 354 354 353 353 354 354 353 353 353 352 350 350 350 350 350 346 346 345 345 346 347 347 348 349 348 348 347 347 345 342 343 344 345 346 345 345 348
351 350 353 351 353 353 355 355 354 354 354 354 354 353 350 351 350 350 350 349 349 346 345 346 345 346 348 347 348 347 348 348 347 347 345 343 343 343 344 345 345 348 349
354 353 356 355 355 354 355 356 355 355 354 353 353 352 352 349 350 351 350 349 348 357 349 344 345 347 349 348 349 350 349 349 348 349 349 348 342 343 346 346 348 348 347
353 354 355 356 356 355 355 355 355 355 354 353 351 352 352 351 351 351 351 351 351 351 355 347 346 347 347 348 349 349 348 349 348 347 345 343 343 344 345 347 347 345 344
354 352 347 352 355 355 355 354 355 354 354 354 352 351 350 351 350 350 351 352 352 352 353 349 348 348 348 351 349 348 349 348 349 348 346 343 344 344 345 345 344 343 343
354 352 351 345 347 351 354 354 355 354 354 353 352 351 352 351 351 351 350 351 352 351 351 352 349 348 349 348 347 351 348 348 348 349 347 342 342 343 343 343 343 343 342
353 352 352 349 349 352 354 355 353 354 354 354 352 351 352 352 351 351 351 351 352 352 351 351 350 348 345 348 349 350 349 348 348 346 345 341 340 342 343 343 343 342 341
348 351 352 350 349 347 353 353 354 353 353 353 352 352 353 353 353 352 352 352 351 351 351 350 349 344 345 347 346 347 349 350 347 346 344 343 343 341 341 342 341 340 338
348 348 349 350 350 350 353 355 355 355 353 353 353 353 353 352 353 352 352 352 350 351 350 349 346 345 346 347 346 346 346 344 347 347 346 345 344 343 342 339 339 337 337
344 344 345 344 345 348 350 349 349 353 353 352 353 353 352 352 351 351 350 349 349 349 348 348 348 346 347 347 346 347 346 346 346 344 346 345 344 345 344 344 343 341 339
344 343 344 344 344 345 345 345 346 347 349 352 353 352 352 351 351 352 349 348 347 347 347 349 349 348 348 347 347 348 347 347 346 343 346 346 344 344 343 343 342 341 341
343 343 343 344 344 345 345 345 346 348 350 351 352 352 351 351 351 351 350 351 349 347 347 346 347 347 347 348 347 348 347 347 347 346 345 344 342 341 342 342 341 342 340
344 345 344 344 344 345 344 341 341 343 346 348 350 349 350 349 348 348 349 349 347 345 341 341 341 342 344 342 344 346 347 347 347 344 344 345 343 342 340 342 342 341 340
344 343 343 342 341 343 341 341 339 341 342 343 343 343 344 344 343 341 342 341 343 340 339 341 337 337 334 338 341 342 343 345 346 346 344 345 345 343 342 340 340 342 340

GFSMA_925_thetae_123.txt.gz
Theta_e
341 345 348 347 348 344 342 344 346 348 345 343 344 344 345 346 345 345 343 344 346 343 342 338 332 332 333 333 335 336 335 333 341 339 337 334 334 343 342 337 336 338 341
349 347 348 345 348 346 346 347 348 350 347 344 342 344 344 344 347 348 348 346 347 347 345 343 340 333 333 334 333 333 334 333 331 339 342 337 332 333 338 341 340 334 342
351 354 350 344 346 348 346 347 346 347 346 346 346 343 343 344 346 349 346 343 349 349 347 344 342 340 336 336 335 334 333 334 333 332 333 335 334 334 333 332 340 340 335
347 349 347 345 347 350 347 348 346 343 348 347 345 341 339 343 344 346 349 348 350 350 349 344 343 342 340 339 340 340 339 339 339 339 338 337 336 335 336 336 334 334 336
345 350 351 347 347 351 348 347 342 343 346 345 346 345 341 342 342 343 346 347 345 347 348 348 347 343 341 344 342 342 341 341 342 342 342 343 342 342 340 339 338 337 336
347 348 348 346 346 350 350 346 344 340 341 343 344 344 342 340 343 344 346 346 345 344 349 347 349 347 345 346 346 345 344 344 343 342 343 343 344 344 344 343 343 342 342
348 349 348 347 347 346 350 347 344 345 347 348 347 344 344 342 340 341 345 345 344 346 347 346 349 349 347 348 347 347 347 346 345 344 343 343 343 343 344 344 344 344 344
351 347 346 347 351 350 349 349 347 346 349 346 347 346 343 344 343 342 343 343 343 342 345 347 348 350 349 348 350 347 348 348 347 346 347 346 344 343 343 343 344 344 345
351 349 348 345 349 349 350 349 348 346 344 343 343 342 340 342 343 345 344 345 344 344 344 348 349 349 348 349 351 346 347 349 350 350 349 348 348 347 346 344 344 344 344
350 349 348 344 345 350 348 346 346 347 347 343 342 345 342 345 342 345 346 345 344 343 343 344 347 352 350 350 349 349 348 350 350 349 352 350 350 350 350 349 347 346 345
353 350 349 348 345 346 352 348 346 348 345 348 347 346 346 343 343 344 344 347 347 345 345 346 343 345 350 350 351 350 351 351 353 352 349 350 351 348 348 348 346 345 346
353 354 352 351 348 347 348 352 349 348 346 346 345 345 348 344 346 349 345 345 347 347 346 346 344 348 351 347 342 346 349 345 350 351 351 351 351 349 347 346 345 342 343
351 353 353 353 352 351 350 351 351 349 350 347 346 346 344 348 347 348 348 347 347 348 349 349 348 348 348 350 345 341 345 345 347 348 348 347 347 346 346 346 345 342 342
354 353 351 352 353 352 353 351 352 353 354 352 350 349 349 348 348 348 348 347 346 346 348 347 343 346 349 349 348 345 343 349 347 346 347 347 347 348 347 347 345 342 342
352 352 353 352 353 353 351 353 352 351 354 353 353 352 351 351 351 351 350 349 348 347 345 348 350 349 348 348 346 345 348 347 347 348 347 346 347 345 346 346 346 343 343
351 352 351 352 353 353 352 353 354 353 352 354 355 354 353 352 351 350 349 349 349 349 349 350 349 349 350 349 347 348 347 348 348 347 345 347 347 348 345 343 342 342 344
351 352 351 352 351 352 353 353 352 353 353 353 354 355 354 352 352 351 350 349 350 350 349 349 349 348 349 349 349 348 349 348 348 346 346 347 348 348 345 342 343 344 345
350 351 350 351 351 350 341 343 340 342 349 350 352 353 353 354 353 352 351 350 350 349 349 348 349 350 350 350 349 348 347 349 345 346 346 347 348 347 342 340 341 343 343
349 352 350 349 349 340 340 341 336 332 335 348 350 352 352 353 354 353 352 350 350 349 349 351 351 352 350 348 348 348 347 347 346 345 346 347 346 344 341 338 338 340 341
347 348 349 350 349 344 340 340 331 332 335 337 348 351 352 352 353 353 353 352 350 350 351 352 351 350 350 349 350 348 349 347 346 346 346 347 346 345 341 340 340 339 340
345 346 347 349 346 344 334 331 331 332 335 338 343 349 351 352 352 352 352 353 352 351 352 352 352 352 351 351 350 349 349 347 345 346 347 347 347 346 345 344 343 341 339
345 345 347 348 346 340 339 336 336 337 337 337 339 341 345 343 347 349 350 352 352 352 352 351 351 350 350 350 349 347 346 346 344 345 343 345 346 346 345 345 344 344 342
346 346 346 345 347 347 345 343 340 338 337 340 341 336 335 335 335 335 346 350 350 351 351 351 350 349 349 349 346 345 346 345 345 344 345 345 344 346 345 345 343 343 343
343 344 344 345 346 346 347 346 342 338 337 338 338 331 334 334 333 337 342 349 349 351 351 350 349 347 348 347 345 345 345 344 343 343 344 346 345 345 343 344 341 342 343
340 341 342 342 343 343 343 345 345 340 339 341 342 340 343 338 338 343 346 348 348 347 347 348 348 346 347 346 344 342 342 341 341 341 342 341 344 344 343 343 343 342 343
339 339 341 340 341 342 342 343 343 343 344 344 343 343 344 345 346 346 345 345 346 346 346 346 347 346 346 344 343 342 340 340 340 341 339 341 342 343 342 341 342 341 342